CCA0830 ZLLL-ZSAM

Flight info

Callsign CCA0830
Flight time 2h 55m
Altitude 31100
Route UKBIN W214 HO W154 XODAS ZNX PIKEM TOGOG V111 DSY RUXIL WTM B213 WHA R343 SAGUD W50 XSH W105 NCH LEKUV TEBON
Aircraft A320/L-V/N

Departure

Time 2026-04-29 03:43
Airport Lanzhou Zhongchuan International Airport (ZLLL)

Arrival

Time 2026-04-29 06:39
Airport Xiamen Gaoqi International Airport (ZSAM)
Time Latitude Longitude Altitude Speed Heading
2026-04-29 03:18 36.52685 103.63878 6388 ft 0 kts 292°
2026-04-29 03:31 36.52685 103.63880 6387 ft 1 kts 291°
2026-04-29 03:32 36.52683 103.63891 6386 ft 3 kts 288°
2026-04-29 03:32 36.52675 103.63914 6388 ft 3 kts 292°
2026-04-29 03:32 36.52668 103.63937 6386 ft 3 kts 293°
2026-04-29 03:32 36.52659 103.63961 6384 ft 3 kts 294°
2026-04-29 03:33 36.52651 103.63984 6383 ft 3 kts 295°
2026-04-29 03:33 36.52642 103.64006 6386 ft 3 kts 297°
2026-04-29 03:33 36.52633 103.64028 6387 ft 3 kts 304°
2026-04-29 03:33 36.52621 103.64047 6386 ft 3 kts 327°
2026-04-29 03:34 36.52609 103.64054 6387 ft 1 kts 19°
2026-04-29 03:34 36.52607 103.64054 6387 ft 1 kts 22°
2026-04-29 03:36 36.52610 103.64055 6387 ft 1 kts 19°
2026-04-29 03:36 36.52621 103.64060 6382 ft 2 kts 19°
2026-04-29 03:36 36.52641 103.64069 6386 ft 4 kts 19°
2026-04-29 03:36 36.52677 103.64087 6387 ft 7 kts 21°
2026-04-29 03:37 36.52710 103.64141 6385 ft 10 kts 87°
2026-04-29 03:37 36.52750 103.64199 6388 ft 10 kts 358°
2026-04-29 03:37 36.52832 103.64194 6386 ft 13 kts 356°
2026-04-29 03:37 36.52923 103.64187 6387 ft 11 kts 356°
2026-04-29 03:38 36.53005 103.64182 6388 ft 10 kts 356°
2026-04-29 03:38 36.53086 103.64178 6390 ft 13 kts 358°
2026-04-29 03:38 36.53186 103.64173 6390 ft 15 kts 358°
2026-04-29 03:38 36.53291 103.64164 6393 ft 14 kts 354°
2026-04-29 03:39 36.53394 103.64157 6395 ft 15 kts 357°
2026-04-29 03:39 36.53503 103.64150 6395 ft 16 kts 357°
2026-04-29 03:39 36.53595 103.64145 6398 ft 13 kts 357°
2026-04-29 03:39 36.53684 103.64139 6400 ft 13 kts 357°
2026-04-29 03:40 36.53773 103.64134 6400 ft 13 kts 357°
2026-04-29 03:40 36.53858 103.64129 6399 ft 11 kts 357°
2026-04-29 03:40 36.53931 103.64134 6402 ft 10 kts 31°
2026-04-29 03:40 36.53947 103.64205 6402 ft 8 kts 86°
2026-04-29 03:41 36.53951 103.64277 6402 ft 9 kts 86°
2026-04-29 03:41 36.53955 103.64358 6403 ft 10 kts 86°
2026-04-29 03:41 36.53940 103.64421 6403 ft 6 kts 174°
2026-04-29 03:41 36.53884 103.64423 6403 ft 18 kts 177°
2026-04-29 03:42 36.53589 103.64443 6397 ft 66 kts 177°
2026-04-29 03:42 36.52968 103.64477 6387 ft 119 kts 177°
2026-04-29 03:42 36.51994 103.64545 6367 ft 157 kts 178°
2026-04-29 03:42 36.50844 103.64587 6523 ft 164 kts 179°
2026-04-29 03:43 36.49718 103.64643 6834 ft 160 kts 178°
2026-04-29 03:43 36.48573 103.64718 6953 ft 173 kts 177°
2026-04-29 03:43 36.47340 103.64812 7193 ft 180 kts 177°
2026-04-29 03:43 36.46088 103.64900 7611 ft 180 kts 177°
2026-04-29 03:44 36.44829 103.64987 8074 ft 184 kts 178°
2026-04-29 03:44 36.43483 103.65073 8355 ft 204 kts 178°
2026-04-29 03:44 36.41990 103.65167 8662 ft 227 kts 177°
2026-04-29 03:44 36.40318 103.65272 8994 ft 253 kts 177°
2026-04-29 03:45 36.38508 103.65384 9619 ft 265 kts 177°
2026-04-29 03:45 36.36657 103.65498 10515 ft 267 kts 178°
2026-04-29 03:45 36.34791 103.65613 11367 ft 271 kts 178°
2026-04-29 03:45 36.32893 103.65732 12182 ft 274 kts 177°
2026-04-29 03:46 36.30976 103.65852 12971 ft 278 kts 177°
2026-04-29 03:46 36.29062 103.65971 13717 ft 281 kts 177°
2026-04-29 03:46 36.27091 103.66094 14461 ft 284 kts 178°
2026-04-29 03:46 36.25100 103.66217 15179 ft 288 kts 177°
2026-04-29 03:47 36.23089 103.66342 15879 ft 291 kts 177°
2026-04-29 03:47 36.21057 103.66468 16555 ft 294 kts 177°
2026-04-29 03:47 36.19000 103.66596 17213 ft 297 kts 177°
2026-04-29 03:47 36.16921 103.66724 17853 ft 300 kts 177°
2026-04-29 03:48 36.14824 103.66855 18478 ft 304 kts 177°
2026-04-29 03:48 36.12701 103.66986 19077 ft 306 kts 177°
2026-04-29 03:48 36.10563 103.67118 19674 ft 309 kts 177°
2026-04-29 03:48 36.08400 103.67253 20257 ft 312 kts 177°
2026-04-29 03:49 36.06219 103.67388 20819 ft 315 kts 177°
2026-04-29 03:49 36.04014 103.67525 21372 ft 318 kts 177°
2026-04-29 03:49 36.01793 103.67664 21899 ft 321 kts 177°
2026-04-29 03:49 35.99548 103.67804 22420 ft 324 kts 177°
2026-04-29 03:50 35.97289 103.67944 22931 ft 326 kts 177°
2026-04-29 03:50 35.95012 103.68085 23416 ft 329 kts 177°
2026-04-29 03:50 35.92740 103.68227 23902 ft 332 kts 177°
2026-04-29 03:50 35.90425 103.68370 24377 ft 334 kts 177°
2026-04-29 03:51 35.88092 103.68515 24830 ft 337 kts 177°
2026-04-29 03:51 35.85745 103.68661 25265 ft 339 kts 177°
2026-04-29 03:51 35.83377 103.68808 25698 ft 342 kts 177°
2026-04-29 03:51 35.80991 103.68956 26116 ft 344 kts 177°
2026-04-29 03:52 35.78591 103.69105 26519 ft 346 kts 177°
2026-04-29 03:52 35.76177 103.69255 26908 ft 349 kts 177°
2026-04-29 03:52 35.73748 103.69406 27283 ft 351 kts 177°
2026-04-29 03:52 35.71303 103.69558 27656 ft 353 kts 177°
2026-04-29 03:53 35.68840 103.69711 28001 ft 355 kts 177°
2026-04-29 03:53 35.66367 103.69865 28347 ft 357 kts 177°
2026-04-29 03:53 35.63877 103.70019 28681 ft 359 kts 177°
2026-04-29 03:53 35.61378 103.70174 29005 ft 361 kts 177°
2026-04-29 03:54 35.58861 103.70331 29317 ft 363 kts 177°
2026-04-29 03:54 35.56362 103.70487 29621 ft 365 kts 177°
2026-04-29 03:54 35.53819 103.70645 29924 ft 367 kts 177°
2026-04-29 03:54 35.51264 103.70803 30222 ft 368 kts 177°
2026-04-29 03:55 35.48701 103.70963 30512 ft 370 kts 177°
2026-04-29 03:55 35.46120 103.71123 30805 ft 372 kts 177°
2026-04-29 03:55 35.43524 103.71283 31061 ft 375 kts 177°
2026-04-29 03:55 35.40914 103.71445 31098 ft 376 kts 177°
2026-04-29 03:56 35.36585 103.71715 31100 ft 374 kts 177°
2026-04-29 03:56 35.31378 103.72038 31100 ft 374 kts 177°
2026-04-29 03:57 35.26179 103.72361 31101 ft 374 kts 177°
2026-04-29 03:57 35.22813 103.73175 31100 ft 374 kts 155°
2026-04-29 03:57 35.20618 103.74875 31100 ft 376 kts 137°
2026-04-29 03:58 35.19434 103.76480 31106 ft 380 kts 124°
2026-04-29 03:58 35.18231 103.79388 31101 ft 390 kts 107°
2026-04-29 03:58 35.17786 103.82645 31105 ft 399 kts 90°
2026-04-29 03:58 35.18102 103.86043 31102 ft 409 kts 77°
2026-04-29 03:59 35.19665 103.92913 31101 ft 430 kts 74°
2026-04-29 03:59 35.21243 104.00146 31104 ft 450 kts 76°
2026-04-29 04:00 35.22737 104.07737 31101 ft 466 kts 77°
2026-04-29 04:00 35.24217 104.15458 31098 ft 465 kts 77°
2026-04-29 04:01 35.25689 104.23162 31099 ft 465 kts 77°
2026-04-29 04:01 35.27160 104.30879 31102 ft 465 kts 77°
2026-04-29 04:02 35.28623 104.38583 31099 ft 465 kts 77°
2026-04-29 04:02 35.30083 104.46302 31102 ft 465 kts 77°
2026-04-29 04:03 35.31538 104.54016 31101 ft 465 kts 77°
2026-04-29 04:03 35.32980 104.61697 31099 ft 465 kts 77°
2026-04-29 04:04 35.34425 104.69418 31099 ft 465 kts 77°
2026-04-29 04:04 35.35868 104.77160 31099 ft 465 kts 77°
2026-04-29 04:05 35.37305 104.84893 31100 ft 465 kts 77°
2026-04-29 04:05 35.38734 104.92621 31099 ft 465 kts 77°
2026-04-29 04:06 35.40151 105.00305 31100 ft 465 kts 77°
2026-04-29 04:06 35.41571 105.08037 31101 ft 465 kts 77°
2026-04-29 04:07 35.42990 105.15791 31099 ft 465 kts 77°
2026-04-29 04:07 35.44401 105.23530 31099 ft 465 kts 77°
2026-04-29 04:08 35.45808 105.31279 31100 ft 465 kts 77°
2026-04-29 04:08 35.47208 105.39023 31099 ft 465 kts 77°
2026-04-29 04:09 35.48606 105.46777 31099 ft 465 kts 78°
2026-04-29 04:09 35.49998 105.54536 31102 ft 465 kts 78°
2026-04-29 04:10 35.51384 105.62288 31099 ft 465 kts 78°
2026-04-29 04:10 35.52559 105.70097 31100 ft 465 kts 85°
2026-04-29 04:11 35.52333 105.77949 31100 ft 464 kts 99°
2026-04-29 04:11 35.51156 105.85747 31100 ft 464 kts 101°
2026-04-29 04:12 35.49994 105.93551 31102 ft 464 kts 101°
2026-04-29 04:12 35.48823 106.01354 31099 ft 464 kts 101°
2026-04-29 04:13 35.47645 106.09149 31103 ft 464 kts 101°
2026-04-29 04:13 35.46461 106.16944 31099 ft 464 kts 101°
2026-04-29 04:14 35.45279 106.24688 31099 ft 464 kts 101°
2026-04-29 04:14 35.44084 106.32484 31101 ft 464 kts 101°
2026-04-29 04:15 35.42886 106.40264 31100 ft 464 kts 101°
2026-04-29 04:15 35.41682 106.48051 31099 ft 464 kts 101°
2026-04-29 04:16 35.40473 106.55833 31100 ft 464 kts 101°
2026-04-29 04:16 35.39267 106.63563 31101 ft 464 kts 101°
2026-04-29 04:17 35.38048 106.71340 31099 ft 464 kts 101°
2026-04-29 04:17 35.36825 106.79112 31100 ft 464 kts 101°
2026-04-29 04:18 35.35596 106.86885 31103 ft 464 kts 101°
2026-04-29 04:18 35.34362 106.94658 31100 ft 464 kts 101°
2026-04-29 04:19 35.33127 107.02428 31100 ft 464 kts 101°
2026-04-29 04:19 35.31899 107.10153 31100 ft 464 kts 101°
2026-04-29 04:20 35.30659 107.17917 31100 ft 464 kts 101°
2026-04-29 04:20 35.29414 107.25676 31100 ft 464 kts 101°
2026-04-29 04:21 35.28164 107.33431 31100 ft 464 kts 101°
2026-04-29 04:21 35.26909 107.41189 31099 ft 464 kts 101°
2026-04-29 04:22 35.25648 107.48944 31100 ft 464 kts 101°
2026-04-29 04:22 35.24377 107.56693 31100 ft 464 kts 102°
2026-04-29 04:23 35.23089 107.64387 31099 ft 464 kts 102°
2026-04-29 04:23 35.21745 107.72119 31100 ft 464 kts 106°
2026-04-29 04:24 35.19051 107.79249 31102 ft 463 kts 125°
2026-04-29 04:24 35.14902 107.85263 31099 ft 463 kts 132°
2026-04-29 04:25 35.10634 107.91157 31099 ft 463 kts 131°
2026-04-29 04:25 35.06364 107.97050 31098 ft 463 kts 132°
2026-04-29 04:26 35.02089 108.02937 31099 ft 463 kts 132°
2026-04-29 04:26 34.97811 108.08817 31099 ft 463 kts 132°
2026-04-29 04:27 34.93497 108.14582 31102 ft 463 kts 137°
2026-04-29 04:27 34.88171 108.18921 31103 ft 462 kts 156°
2026-04-29 04:28 34.82113 108.21518 31100 ft 462 kts 162°
2026-04-29 04:28 34.76026 108.24005 31099 ft 462 kts 161°
2026-04-29 04:29 34.69925 108.26501 31099 ft 462 kts 161°
2026-04-29 04:29 34.63838 108.28987 31100 ft 462 kts 162°
2026-04-29 04:30 34.57745 108.31470 31100 ft 462 kts 162°
2026-04-29 04:31 34.48647 108.35171 31100 ft 462 kts 162°
2026-04-29 04:31 34.42546 108.37648 31101 ft 462 kts 162°
2026-04-29 04:32 34.36451 108.40119 31099 ft 462 kts 162°
2026-04-29 04:32 34.30358 108.42585 31100 ft 462 kts 162°
2026-04-29 04:33 34.24264 108.45048 31101 ft 462 kts 162°
2026-04-29 04:33 34.18171 108.47506 31101 ft 462 kts 162°
2026-04-29 04:34 34.12123 108.49958 31099 ft 462 kts 160°
2026-04-29 04:34 34.06291 108.53227 31099 ft 462 kts 154°
2026-04-29 04:35 34.00530 108.56685 31100 ft 462 kts 154°
2026-04-29 04:35 33.94772 108.60122 31099 ft 462 kts 154°
2026-04-29 04:36 33.89006 108.63557 31101 ft 462 kts 154°
2026-04-29 04:36 33.83289 108.66957 31101 ft 462 kts 154°
2026-04-29 04:37 33.77515 108.70386 31100 ft 462 kts 154°
2026-04-29 04:37 33.71750 108.73805 31099 ft 462 kts 154°
2026-04-29 04:38 33.65988 108.77217 31100 ft 462 kts 154°
2026-04-29 04:38 33.60213 108.80632 31099 ft 462 kts 154°
2026-04-29 04:39 33.54752 108.84642 31100 ft 463 kts 137°
2026-04-29 04:39 33.52600 108.87504 31101 ft 463 kts 126°
2026-04-29 04:39 33.50988 108.90844 31101 ft 464 kts 114°
2026-04-29 04:39 33.49985 108.94519 31099 ft 464 kts 102°
2026-04-29 04:40 33.49432 108.98334 31100 ft 465 kts 99°
2026-04-29 04:40 33.48358 109.05919 31099 ft 464 kts 100°
2026-04-29 04:41 33.47261 109.13541 31103 ft 464 kts 100°
2026-04-29 04:41 33.46153 109.21164 31102 ft 464 kts 100°
2026-04-29 04:42 33.45044 109.28774 31100 ft 464 kts 100°
2026-04-29 04:42 33.43926 109.36404 31099 ft 464 kts 100°
2026-04-29 04:43 33.42805 109.44021 31100 ft 464 kts 100°
2026-04-29 04:43 33.41686 109.51587 31099 ft 464 kts 100°
2026-04-29 04:44 33.40556 109.59198 31100 ft 464 kts 100°
2026-04-29 04:44 33.39422 109.66809 31100 ft 464 kts 100°
2026-04-29 04:45 33.38229 109.74401 31098 ft 464 kts 105°
2026-04-29 04:45 33.36223 109.80329 31098 ft 464 kts 120°
2026-04-29 04:46 33.32343 109.86478 31099 ft 463 kts 130°
2026-04-29 04:46 33.28224 109.92413 31099 ft 463 kts 130°
2026-04-29 04:47 33.24115 109.98339 31100 ft 463 kts 130°
2026-04-29 04:47 33.19999 110.04262 31099 ft 463 kts 130°
2026-04-29 04:48 33.15881 110.10177 31100 ft 463 kts 130°
2026-04-29 04:48 33.11760 110.16087 31099 ft 463 kts 130°
2026-04-29 04:49 33.07659 110.21959 31099 ft 463 kts 130°
2026-04-29 04:49 33.03526 110.27866 31099 ft 463 kts 130°
2026-04-29 04:50 32.99397 110.33759 31101 ft 463 kts 130°
2026-04-29 04:50 32.95265 110.39647 31100 ft 463 kts 130°
2026-04-29 04:51 32.91125 110.45537 31102 ft 463 kts 130°
2026-04-29 04:51 32.86987 110.51413 31100 ft 463 kts 130°
2026-04-29 04:52 32.82847 110.57284 31099 ft 463 kts 130°
2026-04-29 04:52 32.78727 110.63117 31100 ft 463 kts 130°
2026-04-29 04:53 32.74578 110.68981 31099 ft 463 kts 130°
2026-04-29 04:53 32.70433 110.74832 31100 ft 463 kts 130°
2026-04-29 04:54 32.66280 110.80684 31100 ft 463 kts 130°
2026-04-29 04:54 32.62127 110.86527 31099 ft 463 kts 130°
2026-04-29 04:55 32.57961 110.92352 31098 ft 463 kts 132°
2026-04-29 04:55 32.53303 110.97557 31103 ft 463 kts 139°
2026-04-29 04:56 32.48478 111.02610 31103 ft 463 kts 139°
2026-04-29 04:56 32.43660 111.07661 31100 ft 463 kts 139°
2026-04-29 04:57 32.38841 111.12704 31100 ft 463 kts 139°
2026-04-29 04:57 32.34012 111.17748 31100 ft 463 kts 139°
2026-04-29 04:58 32.29187 111.22782 31099 ft 463 kts 139°
2026-04-29 04:58 32.24358 111.27811 31100 ft 463 kts 139°
2026-04-29 04:59 32.19529 111.32833 31099 ft 462 kts 139°
2026-04-29 04:59 32.14694 111.37853 31099 ft 463 kts 139°
2026-04-29 05:00 32.09859 111.42866 31100 ft 463 kts 139°
2026-04-29 05:00 32.05021 111.47877 31101 ft 463 kts 139°
2026-04-29 05:01 32.00185 111.52877 31100 ft 463 kts 139°
2026-04-29 05:01 31.95365 111.57852 31099 ft 463 kts 139°
2026-04-29 05:02 31.90525 111.62842 31100 ft 463 kts 139°
2026-04-29 05:02 31.85680 111.67829 31099 ft 463 kts 139°
2026-04-29 05:03 31.80832 111.72813 31099 ft 463 kts 139°
2026-04-29 05:03 31.75981 111.77792 31100 ft 463 kts 139°
2026-04-29 05:04 31.71135 111.82758 31099 ft 463 kts 139°
2026-04-29 05:04 31.66280 111.87727 31102 ft 463 kts 139°
2026-04-29 05:05 31.61427 111.92687 31101 ft 463 kts 139°
2026-04-29 05:05 31.56569 111.97645 31099 ft 463 kts 139°
2026-04-29 05:06 31.51734 112.02572 31099 ft 463 kts 139°
2026-04-29 05:06 31.46871 112.07521 31100 ft 463 kts 139°
2026-04-29 05:07 31.42013 112.12477 31098 ft 463 kts 137°
2026-04-29 05:07 31.37794 112.18165 31103 ft 463 kts 127°
2026-04-29 05:08 31.33934 112.24197 31102 ft 463 kts 127°
2026-04-29 05:08 31.30056 112.30219 31100 ft 463 kts 127°
2026-04-29 05:09 31.26174 112.36234 31102 ft 463 kts 127°
2026-04-29 05:09 31.22314 112.42205 31102 ft 463 kts 127°
2026-04-29 05:10 31.18426 112.48209 31100 ft 463 kts 127°
2026-04-29 05:10 31.14535 112.54211 31100 ft 463 kts 127°
2026-04-29 05:11 31.10644 112.60201 31101 ft 463 kts 127°
2026-04-29 05:11 31.06844 112.66044 31099 ft 463 kts 127°
2026-04-29 05:12 31.02944 112.72031 31102 ft 463 kts 127°
2026-04-29 05:12 30.99041 112.78013 31102 ft 463 kts 127°
2026-04-29 05:13 30.95137 112.83988 31100 ft 463 kts 128°
2026-04-29 05:13 30.91231 112.89957 31103 ft 463 kts 128°
2026-04-29 05:14 30.87346 112.95885 31099 ft 463 kts 128°
2026-04-29 05:14 30.83432 113.01849 31099 ft 463 kts 128°
2026-04-29 05:15 30.79515 113.07807 31099 ft 463 kts 128°
2026-04-29 05:15 30.76280 113.14241 31099 ft 464 kts 109°
2026-04-29 05:15 30.75554 113.17888 31100 ft 464 kts 96°
2026-04-29 05:16 30.75466 113.21640 31109 ft 465 kts 88°
2026-04-29 05:16 30.75704 113.29154 31100 ft 465 kts 88°
2026-04-29 05:17 30.75919 113.36622 31100 ft 465 kts 88°
2026-04-29 05:17 30.76109 113.44131 31099 ft 465 kts 88°
2026-04-29 05:18 30.76292 113.51645 31100 ft 465 kts 89°
2026-04-29 05:18 30.76470 113.59158 31100 ft 465 kts 89°
2026-04-29 05:19 30.76644 113.66680 31100 ft 465 kts 89°
2026-04-29 05:19 30.76814 113.74193 31100 ft 465 kts 89°
2026-04-29 05:20 30.76979 113.81711 31104 ft 465 kts 89°
2026-04-29 05:20 30.77128 113.88645 31101 ft 465 kts 89°
2026-04-29 05:21 30.77285 113.96157 31100 ft 465 kts 89°
2026-04-29 05:21 30.77449 114.03678 31100 ft 465 kts 88°
2026-04-29 05:22 30.77767 114.11188 31100 ft 465 kts 87°
2026-04-29 05:22 30.78026 114.16345 31099 ft 465 kts 84°
2026-04-29 05:23 30.79336 114.23699 31100 ft 465 kts 72°
2026-04-29 05:23 30.81641 114.30729 31099 ft 465 kts 69°
2026-04-29 05:24 30.83915 114.37786 31099 ft 465 kts 70°
2026-04-29 05:24 30.84705 114.41381 31099 ft 465 kts 82°
2026-04-29 05:24 30.84850 114.45132 31100 ft 465 kts 94°
2026-04-29 05:24 30.84333 114.48838 31102 ft 464 kts 106°
2026-04-29 05:25 30.83176 114.52336 31101 ft 464 kts 118°
2026-04-29 05:25 30.79830 114.58749 31099 ft 463 kts 122°
2026-04-29 05:26 30.76439 114.65136 31099 ft 463 kts 122°
2026-04-29 05:26 30.73053 114.71508 31101 ft 463 kts 122°
2026-04-29 05:27 30.69659 114.77880 31100 ft 463 kts 122°
2026-04-29 05:27 30.64563 114.87431 31101 ft 463 kts 122°
2026-04-29 05:28 30.61166 114.93784 31102 ft 463 kts 122°
2026-04-29 05:28 30.57760 115.00143 31099 ft 463 kts 122°
2026-04-29 05:29 30.54352 115.06497 31100 ft 463 kts 122°
2026-04-29 05:29 30.50963 115.12805 31101 ft 463 kts 122°
2026-04-29 05:30 30.47552 115.19144 31099 ft 463 kts 122°
2026-04-29 05:30 30.43720 115.25112 31099 ft 463 kts 137°
2026-04-29 05:31 30.41169 115.27379 31099 ft 462 kts 149°
2026-04-29 05:31 30.38280 115.29006 31102 ft 462 kts 159°
2026-04-29 05:31 30.32274 115.31656 31099 ft 462 kts 159°
2026-04-29 05:32 30.27286 115.33866 31099 ft 462 kts 159°
2026-04-29 05:32 30.21287 115.36526 31100 ft 462 kts 159°
2026-04-29 05:33 30.15322 115.39168 31100 ft 462 kts 159°
2026-04-29 05:33 30.09319 115.41823 31100 ft 462 kts 159°
2026-04-29 05:34 30.03317 115.44474 31100 ft 462 kts 159°
2026-04-29 05:34 29.97316 115.47121 31099 ft 462 kts 159°
2026-04-29 05:35 29.91308 115.49769 31100 ft 462 kts 159°
2026-04-29 05:35 29.85300 115.52412 31101 ft 462 kts 159°
2026-04-29 05:36 29.79299 115.55048 31100 ft 462 kts 159°
2026-04-29 05:36 29.73294 115.57683 31099 ft 462 kts 159°
2026-04-29 05:37 29.67325 115.60297 31099 ft 462 kts 159°
2026-04-29 05:37 29.61310 115.62928 31101 ft 462 kts 159°
2026-04-29 05:38 29.55307 115.65554 31099 ft 462 kts 159°
2026-04-29 05:38 29.49300 115.68185 31101 ft 462 kts 159°
2026-04-29 05:39 29.43293 115.70812 31102 ft 462 kts 159°
2026-04-29 05:39 29.37286 115.73435 31100 ft 462 kts 159°
2026-04-29 05:40 29.31275 115.75893 31100 ft 461 kts 163°
2026-04-29 05:40 29.25127 115.78038 31100 ft 462 kts 163°
2026-04-29 05:41 29.18988 115.80186 31102 ft 461 kts 163°
2026-04-29 05:41 29.12844 115.82334 31100 ft 461 kts 163°
2026-04-29 05:42 29.06699 115.84518 31099 ft 461 kts 162°
2026-04-29 05:42 29.00601 115.86819 31102 ft 462 kts 162°
2026-04-29 05:43 28.94532 115.89103 31100 ft 461 kts 162°
2026-04-29 05:43 28.88389 115.91238 31101 ft 461 kts 168°
2026-04-29 05:44 28.82046 115.92325 31101 ft 461 kts 173°
2026-04-29 05:44 28.75684 115.93295 31100 ft 461 kts 172°
2026-04-29 05:45 28.69324 115.94271 31101 ft 461 kts 172°
2026-04-29 05:45 28.62960 115.95248 31099 ft 461 kts 172°
2026-04-29 05:46 28.56602 115.96222 31100 ft 461 kts 172°
2026-04-29 05:46 28.50276 115.97189 31100 ft 461 kts 172°
2026-04-29 05:47 28.43912 115.98162 31100 ft 461 kts 173°
2026-04-29 05:47 28.37554 115.99132 31100 ft 461 kts 173°
2026-04-29 05:48 28.31187 116.00102 31101 ft 461 kts 173°
2026-04-29 05:48 28.24821 116.01072 31100 ft 461 kts 173°
2026-04-29 05:49 28.18457 116.02039 31101 ft 461 kts 173°
2026-04-29 05:49 28.12097 116.03005 31100 ft 461 kts 173°
2026-04-29 05:50 28.05736 116.03970 31100 ft 461 kts 173°
2026-04-29 05:50 27.99373 116.04934 31099 ft 461 kts 173°
2026-04-29 05:51 27.93056 116.05890 31100 ft 461 kts 173°
2026-04-29 05:51 27.86694 116.06852 31100 ft 461 kts 173°
2026-04-29 05:52 27.80335 116.07811 31101 ft 461 kts 173°
2026-04-29 05:52 27.73971 116.08771 31099 ft 461 kts 173°
2026-04-29 05:53 27.67607 116.09729 31100 ft 461 kts 173°
2026-04-29 05:53 27.61247 116.10686 31100 ft 461 kts 173°
2026-04-29 05:54 27.54883 116.11642 31100 ft 461 kts 173°
2026-04-29 05:54 27.48520 116.12597 31100 ft 461 kts 173°
2026-04-29 05:55 27.42201 116.13544 31100 ft 461 kts 173°
2026-04-29 05:55 27.35839 116.14497 31100 ft 461 kts 173°
2026-04-29 05:56 27.29472 116.15448 31099 ft 461 kts 173°
2026-04-29 05:56 27.23103 116.16401 31100 ft 461 kts 173°
2026-04-29 05:57 27.16731 116.17351 31100 ft 461 kts 173°
2026-04-29 05:57 27.10370 116.18299 31099 ft 461 kts 173°
2026-04-29 05:58 27.04045 116.19241 31101 ft 461 kts 173°
2026-04-29 05:58 26.97687 116.20187 31100 ft 461 kts 173°
2026-04-29 05:59 26.91385 116.21529 31100 ft 461 kts 163°
2026-04-29 05:59 26.85412 116.24159 31101 ft 462 kts 157°
2026-04-29 06:00 26.79502 116.26980 31100 ft 462 kts 157°
2026-04-29 06:00 26.73580 116.29792 31100 ft 462 kts 157°
2026-04-29 06:01 26.67658 116.32599 31100 ft 462 kts 157°
2026-04-29 06:01 26.61777 116.35384 31099 ft 462 kts 157°
2026-04-29 06:02 26.55852 116.38186 31098 ft 462 kts 157°
2026-04-29 06:02 26.49932 116.40984 31100 ft 462 kts 157°
2026-04-29 06:03 26.44012 116.43777 31099 ft 462 kts 157°
2026-04-29 06:03 26.38096 116.46567 31099 ft 462 kts 157°
2026-04-29 06:04 26.32175 116.49354 31103 ft 462 kts 157°
2026-04-29 06:04 26.26257 116.52137 31101 ft 462 kts 157°
2026-04-29 06:05 26.20336 116.54920 31100 ft 462 kts 157°
2026-04-29 06:05 26.14416 116.57698 31100 ft 462 kts 157°
2026-04-29 06:06 26.08491 116.60476 31100 ft 462 kts 157°
2026-04-29 06:06 26.02566 116.63251 31099 ft 462 kts 157°
2026-04-29 06:07 25.96645 116.66020 31099 ft 462 kts 157°
2026-04-29 06:07 25.90764 116.68768 30965 ft 461 kts 157°
2026-04-29 06:08 25.87798 116.70153 30622 ft 462 kts 157°
2026-04-29 06:08 25.84846 116.71530 30229 ft 459 kts 157°
2026-04-29 06:08 25.81907 116.72901 29819 ft 455 kts 158°
2026-04-29 06:08 25.78996 116.74258 29427 ft 451 kts 158°
2026-04-29 06:09 25.76114 116.75600 29029 ft 449 kts 158°
2026-04-29 06:09 25.73242 116.76938 28630 ft 446 kts 158°
2026-04-29 06:09 25.70381 116.78269 28227 ft 443 kts 158°
2026-04-29 06:09 25.67547 116.79588 27828 ft 441 kts 158°
2026-04-29 06:10 25.64768 116.80880 27434 ft 438 kts 158°
2026-04-29 06:10 25.61963 116.82183 27033 ft 435 kts 158°
2026-04-29 06:10 25.59183 116.83474 26633 ft 432 kts 158°
2026-04-29 06:10 25.56418 116.84758 26235 ft 430 kts 158°
2026-04-29 06:11 25.53666 116.86034 25833 ft 427 kts 158°
2026-04-29 06:11 25.50930 116.87303 25434 ft 424 kts 158°
2026-04-29 06:11 25.48212 116.88563 25034 ft 422 kts 158°
2026-04-29 06:11 25.45514 116.89813 24630 ft 419 kts 158°
2026-04-29 06:12 25.42834 116.91054 24238 ft 416 kts 158°
2026-04-29 06:12 25.40167 116.92289 23833 ft 414 kts 158°
2026-04-29 06:12 25.37516 116.93515 23433 ft 411 kts 158°
2026-04-29 06:12 25.34879 116.94734 23036 ft 409 kts 158°
2026-04-29 06:13 25.32290 116.95931 22639 ft 406 kts 158°
2026-04-29 06:13 25.29689 116.97132 22235 ft 404 kts 158°
2026-04-29 06:13 25.27104 116.98327 21839 ft 401 kts 158°
2026-04-29 06:13 25.24528 116.99515 21438 ft 399 kts 158°
2026-04-29 06:14 25.21977 117.00692 21039 ft 396 kts 158°
2026-04-29 06:14 25.19433 117.01865 20636 ft 394 kts 158°
2026-04-29 06:14 25.16912 117.03027 20239 ft 392 kts 158°
2026-04-29 06:14 25.14406 117.04182 19838 ft 389 kts 158°
2026-04-29 06:15 25.11912 117.05330 19438 ft 387 kts 158°
2026-04-29 06:15 25.09436 117.06469 19039 ft 385 kts 158°
2026-04-29 06:15 25.06972 117.07602 18638 ft 382 kts 158°
2026-04-29 06:15 25.04525 117.08728 18241 ft 380 kts 158°
2026-04-29 06:16 25.02091 117.09846 17838 ft 377 kts 158°
2026-04-29 06:16 24.99673 117.10958 17438 ft 375 kts 158°
2026-04-29 06:16 24.97269 117.12062 17039 ft 373 kts 158°
2026-04-29 06:16 24.94878 117.13159 16636 ft 371 kts 158°
2026-04-29 06:17 24.92505 117.14248 16237 ft 369 kts 158°
2026-04-29 06:17 24.90144 117.15331 15841 ft 366 kts 158°
2026-04-29 06:17 24.87797 117.16407 15437 ft 364 kts 158°
2026-04-29 06:17 24.85498 117.17461 15048 ft 362 kts 158°
2026-04-29 06:18 24.83175 117.18526 14646 ft 360 kts 158°
2026-04-29 06:18 24.80870 117.19581 14243 ft 358 kts 158°
2026-04-29 06:18 24.78578 117.20629 13846 ft 356 kts 158°
2026-04-29 06:18 24.76297 117.21674 13441 ft 353 kts 158°
2026-04-29 06:19 24.74036 117.22709 13041 ft 352 kts 158°
2026-04-29 06:19 24.71780 117.23738 12641 ft 349 kts 158°
2026-04-29 06:19 24.69542 117.24760 12245 ft 347 kts 158°
2026-04-29 06:19 24.67317 117.25778 11913 ft 344 kts 158°
2026-04-29 06:20 24.65110 117.26787 11811 ft 344 kts 158°
2026-04-29 06:20 24.63646 117.27455 11801 ft 345 kts 158°
2026-04-29 06:20 24.61426 117.28468 11799 ft 343 kts 158°
2026-04-29 06:20 24.58568 117.29774 11799 ft 321 kts 158°
2026-04-29 06:21 24.56586 117.30678 11799 ft 304 kts 158°
2026-04-29 06:21 24.54672 117.31551 11800 ft 295 kts 158°
2026-04-29 06:21 24.52752 117.32423 11798 ft 300 kts 158°
2026-04-29 06:21 24.50826 117.33300 11801 ft 299 kts 158°
2026-04-29 06:22 24.48910 117.34173 11744 ft 299 kts 158°
2026-04-29 06:22 24.46979 117.35049 11508 ft 299 kts 158°
2026-04-29 06:22 24.45715 117.35624 11382 ft 295 kts 158°
2026-04-29 06:22 24.43813 117.36490 11180 ft 296 kts 158°
2026-04-29 06:23 24.41905 117.37357 10982 ft 296 kts 158°
2026-04-29 06:23 24.40014 117.38217 10784 ft 294 kts 158°
2026-04-29 06:23 24.38125 117.39077 10585 ft 293 kts 158°
2026-04-29 06:23 24.36239 117.39936 10384 ft 292 kts 158°
2026-04-29 06:24 24.34363 117.40790 10182 ft 291 kts 158°
2026-04-29 06:24 24.32491 117.41640 9984 ft 289 kts 158°
2026-04-29 06:24 24.30652 117.42475 9776 ft 282 kts 158°
2026-04-29 06:24 24.28888 117.43275 9575 ft 274 kts 158°
2026-04-29 06:25 24.27147 117.44063 9375 ft 267 kts 158°
2026-04-29 06:25 24.25449 117.44832 9171 ft 263 kts 158°
2026-04-29 06:25 24.23743 117.45607 8973 ft 265 kts 158°
2026-04-29 06:25 24.22047 117.46377 8770 ft 262 kts 158°
2026-04-29 06:26 24.20359 117.47142 8577 ft 263 kts 158°
2026-04-29 06:26 24.18674 117.47906 8375 ft 261 kts 157°
2026-04-29 06:26 24.17182 117.49012 8169 ft 261 kts 131°
2026-04-29 06:26 24.16335 117.50756 7976 ft 262 kts 103°
2026-04-29 06:27 24.16347 117.52730 7770 ft 262 kts 74°
2026-04-29 06:27 24.17214 117.54469 7578 ft 262 kts 49°
2026-04-29 06:27 24.18458 117.55927 7381 ft 262 kts 45°
2026-04-29 06:27 24.19734 117.57339 7181 ft 261 kts 45°
2026-04-29 06:28 24.20997 117.58759 6978 ft 260 kts 46°
2026-04-29 06:28 24.22240 117.60196 6777 ft 260 kts 47°
2026-04-29 06:28 24.23463 117.61642 6577 ft 258 kts 47°
2026-04-29 06:28 24.24674 117.63090 6388 ft 258 kts 47°
2026-04-29 06:29 24.25889 117.64549 6183 ft 257 kts 47°
2026-04-29 06:29 24.27091 117.65991 5973 ft 255 kts 47°
2026-04-29 06:29 24.28274 117.67413 5780 ft 256 kts 47°
2026-04-29 06:29 24.29472 117.68853 5581 ft 255 kts 47°
2026-04-29 06:30 24.30662 117.70285 5374 ft 253 kts 47°
2026-04-29 06:30 24.33038 117.73137 5025 ft 250 kts 47°
2026-04-29 06:30 24.34211 117.74547 5013 ft 252 kts 47°
2026-04-29 06:31 24.35372 117.75941 5008 ft 240 kts 47°
2026-04-29 06:31 24.36454 117.77243 4999 ft 227 kts 47°
2026-04-29 06:31 24.37531 117.78538 5038 ft 233 kts 47°
2026-04-29 06:31 24.38620 117.79845 5037 ft 230 kts 47°
2026-04-29 06:32 24.39578 117.81252 5008 ft 233 kts 66°
2026-04-29 06:32 24.39948 117.82966 4845 ft 232 kts 86°
2026-04-29 06:32 24.40051 117.84548 4531 ft 235 kts 86°
2026-04-29 06:32 24.40169 117.86317 4166 ft 237 kts 86°
2026-04-29 06:33 24.40294 117.88129 3792 ft 240 kts 86°
2026-04-29 06:33 24.40427 117.89958 3411 ft 240 kts 86°
2026-04-29 06:33 24.40564 117.91781 3108 ft 238 kts 85°
2026-04-29 06:33 24.40805 117.93522 3013 ft 224 kts 69°
2026-04-29 06:34 24.41596 117.94951 3011 ft 216 kts 51°
2026-04-29 06:34 24.42517 117.96185 3004 ft 201 kts 51°
2026-04-29 06:34 24.43374 117.97335 3011 ft 193 kts 50°
2026-04-29 06:34 24.44228 117.98486 3031 ft 192 kts 52°
2026-04-29 06:35 24.45056 117.99647 2797 ft 194 kts 52°
2026-04-29 06:35 24.45887 118.00814 2509 ft 195 kts 52°
2026-04-29 06:35 24.46722 118.01986 2234 ft 194 kts 52°
2026-04-29 06:35 24.47547 118.03139 1973 ft 190 kts 52°
2026-04-29 06:36 24.48351 118.04269 1725 ft 186 kts 52°
2026-04-29 06:36 24.49127 118.05356 1464 ft 174 kts 52°
2026-04-29 06:36 24.49829 118.06339 1266 ft 154 kts 52°
2026-04-29 06:36 24.50454 118.07217 1069 ft 146 kts 52°
2026-04-29 06:37 24.51087 118.08105 876 ft 147 kts 52°
2026-04-29 06:37 24.51579 118.08796 723 ft 141 kts 52°
2026-04-29 06:37 24.51939 118.09301 623 ft 138 kts 52°
2026-04-29 06:37 24.52510 118.10101 421 ft 141 kts 52°
2026-04-29 06:38 24.53109 118.10943 248 ft 139 kts 52°
2026-04-29 06:38 24.53707 118.11783 62 ft 139 kts 52°
2026-04-29 06:38 24.54252 118.12542 43 ft 103 kts 49°
2026-04-29 06:38 24.54592 118.12998 43 ft 58 kts 53°
2026-04-29 06:39 24.54703 118.13267 45 ft 19 kts 81°
2026-04-29 06:39 24.54714 118.13345 45 ft 4 kts 81°
2026-04-29 06:39 24.54717 118.13363 45 ft 5 kts 81°
2026-04-29 06:39 24.54719 118.13381 45 ft 4 kts 81°
2026-04-29 06:40 24.54706 118.13397 45 ft 5 kts 153°
2026-04-29 06:40 24.54662 118.13423 44 ft 9 kts 143°
2026-04-29 06:40 24.54625 118.13473 44 ft 6 kts 76°
2026-04-29 06:40 24.54656 118.13525 44 ft 10 kts 53°
2026-04-29 06:41 24.54706 118.13595 44 ft 11 kts 52°
2026-04-29 06:41 24.54761 118.13673 43 ft 15 kts 52°
2026-04-29 06:41 24.54819 118.13753 44 ft 13 kts 52°
2026-04-29 06:41 24.54874 118.13831 44 ft 14 kts 52°
2026-04-29 06:42 24.54932 118.13913 43 ft 15 kts 52°
2026-04-29 06:42 24.54992 118.14006 44 ft 15 kts 76°
2026-04-29 06:42 24.54949 118.14073 44 ft 10 kts 141°
2026-04-29 06:42 24.54914 118.14080 44 ft 3 kts 235°
2026-04-29 06:43 24.54892 118.14049 44 ft 7 kts 231°
2026-04-29 06:43 24.54884 118.14039 44 ft 0 kts 231°